Terminal Aerodrome Forecast
Issued by NWS

Home | Current Version | Previous Version | Graphics & Text | Print | Product List | Glossary On
Versions: 1 2 3 4 5 6 7 8 9 10 11 12 13 14 15 16 17
000
FTUS42 KMHX 220204 AAA
TAFPGV
TAF AMD
KPGV 220204Z 2202/2224 35007KT P6SM SCT008 OVC015
      TEMPO 2204/2206 BKN008
     FM221000 35008KT P6SM SCT030
      AMD LTD TO CLD VIS AND WIND=

USA.gov is the U.S. government's official web portal to all federal, state and local government web resources and services.